IK2CHZ-3 Weather Reports


time (UTC)temp
C
wind
direction
speed
KPH
gust
KPH
rain 1hr
cm
rain 24hr
cm
rain mn
cm
humidity
%
barometer
mb
20260507192320 20 219 0.0 0.0 0.00 0.00 0.00 60 1012.7
20260507191219 20 219 0.0 0.0 0.00 0.00 0.00 59 1012.6
20260507190120 20 219 0.0 0.0 0.00 0.00 0.00 58 1012.5
20260507185020 20 219 0.0 0.0 0.00 0.00 0.00 56 1012.6
20260507183920 21 219 0.0 0.0 0.00 0.00 0.00 56 1012.5
20260507182818 21 219 0.0 0.0 0.00 0.00 0.00 55 1012.5
20260507181719 21 219 0.0 0.0 0.00 0.00 0.00 54 1012.4
20260507180618 21 219 0.0 0.0 0.00 0.00 0.00 54 1012.2
20260507175519 21 219 3.2 3.2 0.00 0.00 0.00 55 1012.0
20260507174420 21 215 3.2 4.8 0.00 0.00 0.00 54 1011.9
20260507173319 21 215 1.6 4.8 0.00 0.00 0.00 54 1011.8
20260507172220 21 216 4.8 4.8 0.00 0.00 0.00 53 1011.8
20260507171119 21 221 1.6 4.8 0.00 0.00 0.00 52 1011.8
20260507170018 21 210 4.8 4.8 0.00 0.00 0.00 52 1011.8
20260507164919 22 230 4.8 4.8 0.00 0.00 0.00 51 1011.6
20260507163819 21 214 4.8 8.0 0.00 0.00 0.00 52 1011.6
20260507162720 22 257 8.0 9.7 0.00 0.00 0.00 51 1011.5
20260507161618 21 225 3.2 4.8 0.00 0.00 0.00 54 1011.6
20260507160519 22 233 9.7 11.3 0.00 0.00 0.00 51 1011.6
20260507155418 21 224 9.7 11.3 0.00 0.00 0.00 52 1011.6
20260507154319 22 256 4.8 9.7 0.00 0.00 0.00 52 1011.5
20260507153219 21 260 9.7 12.9 0.00 0.00 0.00 52 1011.7
20260507152120 21 226 3.2 8.0 0.00 0.00 0.00 52 1011.8
20260507151018 21 184 4.8 9.7 0.00 0.00 0.00 54 1011.7
20260507145919 22 276 3.2 8.0 0.00 0.00 0.00 52 1011.8
20260507144818 22 198 3.2 4.8 0.00 0.00 0.00 52 1011.8
20260507143720 21 298 3.2 4.8 0.00 0.00 0.00 53 1011.9
20260507142619 21 266 1.6 3.2 0.00 0.00 0.00 53 1012.0
20260507141520 21 281 4.8 4.8 0.00 0.00 0.00 53 1012.0
20260507140419 21 268 4.8 8.0 0.00 0.00 0.00 54 1012.0
20260507135318 21 249 8.0 14.5 0.00 0.00 0.00 54 1012.1
20260507134219 21 223 9.7 12.9 0.00 0.00 0.00 55 1012.1
20260507133119 21 301 8.0 11.3 0.00 0.00 0.00 54 1012.2
20260507132019 21 294 4.8 8.0 0.00 0.00 0.00 55 1012.3
20260507130919 21 315 4.8 8.0 0.00 0.00 0.00 54 1012.5
20260507125820 21 243 4.8 8.0 0.00 0.00 0.00 53 1012.4
20260507124718 21 264 3.2 9.7 0.00 0.00 0.00 54 1012.5
20260507123618 20 254 3.2 4.8 0.00 0.00 0.00 54 1012.7
20260507122518 20 274 8.0 16.1 0.00 0.00 0.00 55 1012.6
20260507121419 20 258 3.2 4.8 0.00 0.00 0.00 57 1012.7
20260507120320 20 279 4.8 4.8 0.00 0.00 0.00 57 1012.8
20260507115219 20 254 4.8 14.5 0.00 0.00 0.00 57 1012.9
20260507114120 20 230 4.8 4.8 0.00 0.00 0.00 57 1013.0
20260507113019 20 339 3.2 8.0 0.00 0.00 0.00 59 1013.1
20260507111919 20 336 3.2 8.0 0.00 0.00 0.00 60 1013.2
20260507110818 20 288 8.0 14.5 0.00 0.00 0.00 58 1013.3
20260507105719 19 271 4.8 9.7 0.00 0.00 0.00 57 1013.4
20260507104620 19 278 4.8 8.0 0.00 0.00 0.00 57 1013.5
20260507103519 19 325 3.2 4.8 0.00 0.00 0.00 61 1013.5
20260507102420 18 326 3.2 8.0 0.00 0.00 0.00 61 1013.6
20260507101320 18 310 4.8 4.8 0.00 0.00 0.00 63 1013.6
20260507100218 18 345 1.6 4.8 0.00 0.00 0.00 65 1013.6
20260507095119 18 358 0.0 4.8 0.00 0.00 0.00 67 1013.7
20260507094019 18 327 1.6 3.2 0.00 0.00 0.00 68 1013.8
20260507092920 17 347 1.6 4.8 0.00 0.13 0.00 70 1013.7
20260507091819 17 305 1.6 4.8 0.00 0.18 0.00 70 1013.8
20260507090719 16 304 3.2 8.0 0.00 0.23 0.00 72 1013.6
20260507085619 17 319 3.2 4.8 0.00 0.46 0.00 74 1013.7
20260507084519 17 301 4.8 11.3 0.00 0.53 0.00 71 1013.6
20260507083420 17 281 1.6 3.2 0.00 0.61 0.00 69 1013.4
20260507082319 17 304 3.2 4.8 0.00 0.64 0.00 67 1013.4
20260507081220 17 318 1.6 4.8 0.00 0.69 0.00 69 1013.5
20260507080119 17 30 0.0 0.0 0.00 0.74 0.00 68 1013.4
20260507075020 16 30 1.6 4.8 0.00 0.74 0.00 72 1013.3
20260507073918 16 355 0.0 0.0 0.00 0.74 0.00 75 1013.2
20260507072819 15 355 0.0 0.0 0.00 0.74 0.00 77 1013.2
20260507071718 15 355 0.0 0.0 0.00 0.74 0.00 79 1013.1
20260507070619 15 355 1.6 3.2 0.00 0.76 0.00 80 1013.0
20260507065520 15 355 0.0 3.2 0.00 0.76 0.00 81 1012.9
20260507064419 14 355 0.0 0.0 0.00 0.79 0.00 82 1012.8
20260506231318 13 355 1.6 4.8 0.00 1.45 0.00 81 1010.6
20260506230219 13 355 1.6 3.2 0.00 1.45 0.00 80 1010.5
20260506225120 13 0 1.6 4.8 0.00 1.45 0.00 80 1010.4
20260506224019 13 0 1.6 3.2 0.00 1.45 0.00 80 1010.4
20260506222920 13 11 1.6 3.2 0.00 1.45 0.00 80 1010.5
20260506221818 13 13 1.6 3.2 0.00 1.45 0.00 80 1010.7
20260506220718 14 13 0.0 0.0 0.00 1.45 0.00 78 1010.6
20260506215619 14 13 0.0 1.6 0.00 1.45 1.45 77 1010.5
20260506214520 14 13 1.6 1.6 0.00 1.45 1.45 76 1010.3
20260506213420 15 19 1.6 3.2 0.00 1.45 1.45 75 1010.4
20260506212319 14 23 3.2 4.8 0.00 1.45 1.45 76 1010.4
20260506211219 14 16 1.6 4.8 0.00 1.45 1.45 77 1010.3
20260506210118 14 10 1.6 4.8 0.00 1.45 1.45 78 1010.2
20260506205019 14 10 3.2 8.0 0.00 1.47 1.45 78 1010.3
20260506203918 14 11 1.6 4.8 0.00 1.50 1.45 77 1010.2
20260506202819 14 10 4.8 8.0 0.00 1.57 1.45 77 1010.1
20260506201720 14 3 4.8 8.0 0.00 1.60 1.45 77 1009.9
20260506200620 14 10 4.8 8.0 0.00 1.75 1.45 78 1009.9
20260506195518 13 354 4.8 9.7 0.00 1.75 1.45 81 1010.0
20260506194419 13 349 4.8 8.0 0.00 1.75 1.45 82 1009.9